Location: Camp Roosevelt
(41.7914°N, 81.1673°W)
Time: 08:34:21
(UTC+00:00)

Cosmos 1300 - Pass Details

Date: 29 October 2020
Orbit: 511 x 513 km, 82.5° (Epoch: 28 November)

Event Time Altitude Azimuth Distance (km) Brightness Sun altitude
Rises 23:22:59 0° 205° (SSW) 2,615 6.8 -11.9°
Reaches altitude 10° 23:25:13 10° 214° (SW) 1,734 6.0 -12.3°
Maximum altitude 23:28:45 36° 282° (WNW) 831 4.4 -12.9°
Drops below altitude 10° 23:32:18 10° 351° (N) 1,748 5.4 -13.6°
Sets 23:34:34 0° 360° (N) 2,640 6.2 -14.0°
